Location: Baili�vre
(50.0696°N, 4.2409°E)
Time: 15:51:56
(UTC+00:00)

Terra - Pass Details

Date: 08 August 2020
Orbit: 701 x 703 km, 98.2° (Epoch: 19 September)

Event Time Altitude Azimuth Distance (km) Brightness Sun altitude
Exits shadow 20:22:07 12° 112° (ESE) 2,041 3.6 -10.0°
Maximum altitude 20:25:33 25° 61° (ENE) 1,408 3.2 -10.5°
Drops below altitude 10° 20:29:24 10° 7° (N) 2,184 4.8 -10.9°
Sets 20:31:59 0° 355° (N) 3,107 5.9 -11.2°
